| time (UTC) | temp C | wind direction | speed KPH | gust KPH | rain 1hr cm | rain 24hr cm | rain mn cm | humidity % | barometer mb |
| 20260505061533 | 13 | 190 | 0.0 | 1.6 | 0.00 | 0.00 | 0.00 | 79 | 1011.4 |
| 20260505060027 | 13 | 190 | 0.0 | 0.0 | 0.00 | 0.00 | 0.00 | 78 | 1011.3 |
| 20260505054529 | 13 | 190 | 0.0 | 3.2 | 0.00 | 0.00 | 0.00 | 76 | 1011.2 |
| 20260505053026 | 13 | 261 | 1.6 | 6.4 | 0.00 | 0.00 | 0.00 | 74 | 1010.9 |
| 20260505051529 | 13 | 325 | 0.0 | 0.0 | 0.00 | 0.00 | 0.00 | 78 | 1011.0 |
| 20260505041523 | 13 | 315 | 0.0 | 4.8 | 0.00 | 0.00 | 0.00 | 76 | 1010.8 |
| 20260505040023 | 13 | 296 | 0.0 | 1.6 | 0.00 | 0.00 | 0.00 | 74 | 1010.8 |
| 20260505034521 | 14 | 295 | 0.0 | 6.4 | 0.00 | 0.00 | 0.00 | 68 | 1010.7 |
| 20260505033031 | 14 | 248 | 4.8 | 9.7 | 0.00 | 0.00 | 0.00 | 69 | 1010.9 |
| 20260505031519 | 14 | 348 | 0.0 | 8.0 | 0.00 | 0.00 | 0.00 | 69 | 1010.8 |
| 20260505030017 | 14 | 282 | 1.6 | 3.2 | 0.00 | 0.00 | 0.00 | 70 | 1011.0 |
| 20260505024533 | 14 | 279 | 3.2 | 11.3 | 0.00 | 0.00 | 0.00 | 69 | 1011.2 |
| 20260505023015 | 13 | 284 | 3.2 | 9.7 | 0.00 | 0.00 | 0.00 | 70 | 1011.5 |
| 20260505021526 | 13 | 281 | 3.2 | 9.7 | 0.00 | 0.00 | 0.00 | 74 | 1011.7 |
| 20260505020010 | 13 | 281 | 0.0 | 1.6 | 0.00 | 0.00 | 0.00 | 75 | 1012.0 |
| 20260505014509 | 13 | 281 | 0.0 | 1.6 | 0.00 | 0.00 | 0.00 | 74 | 1012.0 |
| 20260505013008 | 13 | 281 | 0.0 | 4.8 | 0.00 | 0.00 | 0.00 | 70 | 1012.0 |
| 20260505011508 | 13 | 281 | 1.6 | 4.8 | 0.00 | 0.00 | 0.00 | 69 | 1012.2 |
| 20260505010004 | 13 | 281 | 0.0 | 4.8 | 0.00 | 0.00 | 0.00 | 70 | 1012.5 |
| 20260505004501 | 13 | 273 | 0.0 | 3.2 | 0.00 | 0.00 | 0.00 | 72 | 1012.8 |
| 20260505003058 | 13 | 273 | 0.0 | 0.0 | 0.00 | 0.00 | 0.00 | 74 | 1013.0 |
| 20260505001556 | 13 | 273 | 0.0 | 3.2 | 0.00 | 0.00 | 0.00 | 70 | 1013.3 |
| 20260505000057 | 13 | 273 | 0.0 | 4.8 | 0.00 | 0.00 | 0.00 | 71 | 1013.4 |
| 20260504234553 | 13 | 273 | 0.0 | 1.6 | 0.00 | 0.00 | 0.00 | 73 | 1013.6 |
| 20260504233058 | 13 | 273 | 0.0 | 3.2 | 0.00 | 0.00 | 0.00 | 71 | 1013.7 |
| 20260504231547 | 13 | 273 | 0.0 | 6.4 | 0.00 | 0.00 | 0.00 | 70 | 1013.8 |
| 20260504230045 | 13 | 273 | 3.2 | 4.8 | 0.00 | 0.00 | 0.00 | 70 | 1013.9 |
| 20260504224543 | 14 | 273 | 0.0 | 1.6 | 0.00 | 0.00 | 0.00 | 69 | 1014.2 |
| 20260504223046 | 15 | 273 | 1.6 | 11.3 | 0.00 | 0.00 | 0.00 | 67 | 1014.2 |
| 20260504221545 | 13 | 281 | 1.6 | 4.8 | 0.00 | 0.00 | 0.00 | 69 | 1014.5 |
| 20260504220033 | 14 | 281 | 0.0 | 6.4 | 0.00 | 0.00 | 0.00 | 67 | 1014.6 |
| 20260504214536 | 14 | 281 | 0.0 | 1.6 | 0.00 | 0.00 | 0.00 | 66 | 1014.7 |
| 20260504213033 | 14 | 283 | 3.2 | 6.4 | 0.00 | 0.00 | 0.00 | 65 | 1014.8 |
| 20260504211532 | 15 | 283 | 0.0 | 3.2 | 0.00 | 0.00 | 0.00 | 64 | 1014.8 |
| 20260504210032 | 15 | 283 | 0.0 | 3.2 | 0.00 | 0.00 | 0.00 | 62 | 1014.9 |
| 20260504204547 | 15 | 283 | 0.0 | 4.8 | 0.00 | 0.00 | 0.00 | 60 | 1014.9 |
| 20260504203032 | 15 | 283 | 0.0 | 4.8 | 0.00 | 0.00 | 0.00 | 60 | 1014.9 |
| 20260504201531 | 15 | 285 | 3.2 | 6.4 | 0.00 | 0.00 | 0.00 | 60 | 1014.8 |
| 20260504200030 | 15 | 292 | 3.2 | 6.4 | 0.00 | 0.00 | 0.00 | 59 | 1014.8 |
| 20260504194537 | 16 | 300 | 1.6 | 4.8 | 0.00 | 0.00 | 0.00 | 59 | 1014.7 |
| 20260504193031 | 16 | 300 | 1.6 | 6.4 | 0.00 | 0.00 | 0.00 | 58 | 1014.5 |
| 20260504191530 | 16 | 306 | 1.6 | 4.8 | 0.00 | 0.00 | 0.00 | 57 | 1014.4 |
| 20260504190033 | 17 | 306 | 0.0 | 8.0 | 0.00 | 0.00 | 0.00 | 54 | 1014.3 |
| 20260504184533 | 17 | 264 | 1.6 | 14.5 | 0.00 | 0.00 | 0.00 | 53 | 1014.1 |
| 20260504183026 | 18 | 250 | 3.2 | 9.7 | 0.00 | 0.00 | 0.00 | 50 | 1014.1 |
| 20260504181526 | 18 | 240 | 3.2 | 9.7 | 0.00 | 0.00 | 0.00 | 50 | 1014.1 |
| 20260504180025 | 18 | 198 | 4.8 | 9.7 | 0.00 | 0.00 | 0.00 | 49 | 1014.0 |
| 20260504174524 | 19 | 231 | 6.4 | 12.9 | 0.00 | 0.00 | 0.00 | 51 | 1013.9 |
| 20260504173024 | 19 | 242 | 6.4 | 14.5 | 0.00 | 0.00 | 0.00 | 49 | 1013.9 |
| 20260504171522 | 20 | 237 | 8.0 | 14.5 | 0.00 | 0.00 | 0.00 | 47 | 1013.9 |
| 20260504081543 | 17 | 342 | 6.4 | 11.3 | 0.00 | 0.00 | 0.00 | 53 | 1016.6 |